Find Kosmos-590

NORAD ID: 6847 Int'l Des: 1973-069 Owner: GUKOSR Country: SU operational
LEOCIRCULAR

リアルタイム位置

3D地球を読み込み中...

Kosmos-590について

説明を読み込み中...

次回通過

Passes for default location (London). Set your location on the main map for personalized predictions.

高度履歴

Loading altitude history...

軌道要素

1 06847U 73069C 26106.02341640 .00000008 00000-0 15343-3 0 9992
2 06847 74.0006 316.2172 0034001 90.9965 63.0798 12.51109613399296
Epoch: Apr 16, 2026 • Age: 23 hours

現在のステータス

高度 1445.5 km
速度 7.16 km/s
衛星直下点 72.07°N, 176.35°W
タイプ other

Most Searched